| time (UTC) | temp F | wind direction | speed knots | gust knots | rain 1hr in | rain 24hr in | rain mn in | humidity % | barometer mb |
| 20260831010100 | 77 | 335 | 0.0 | 3.5 | 0.00 | 0.00 | 0.00 | 30 | 1014.6 |
| 20260831004600 | 78 | 43 | 0.0 | 2.6 | 0.00 | 0.00 | 0.00 | 28 | 1014.7 |
| 20260831003058 | 78 | 46 | 0.0 | 3.5 | 0.00 | 0.00 | 0.00 | 28 | 1014.8 |
| 20260831001556 | 78 | 102 | 0.9 | 4.3 | 0.00 | 0.00 | 0.00 | 28 | 1014.8 |
| 20260831000054 | 77 | 215 | 0.0 | 3.5 | 0.00 | 0.00 | 0.00 | 29 | 1014.9 |
| 20260830234553 | 77 | 274 | 0.9 | 3.5 | 0.00 | 0.00 | 0.00 | 31 | 1014.9 |
| 20260830233053 | 76 | 281 | 1.7 | 3.5 | 0.00 | 0.00 | 0.00 | 31 | 1015.0 |
| 20260830231551 | 77 | 98 | 0.0 | 2.6 | 0.00 | 0.00 | 0.00 | 28 | 1015.3 |
| 20260830230048 | 76 | 318 | 0.9 | 4.3 | 0.00 | 0.00 | 0.00 | 30 | 1015.4 |
| 20260830224546 | 76 | 284 | 3.5 | 6.1 | 0.00 | 0.00 | 0.00 | 30 | 1015.7 |
| 20260830223041 | 75 | 246 | 1.7 | 3.5 | 0.00 | 0.00 | 0.00 | 33 | 1015.9 |
| 20260830221542 | 75 | 137 | 0.0 | 3.5 | 0.00 | 0.00 | 0.00 | 32 | 1016.0 |
| 20260830220037 | 75 | 98 | 0.9 | 5.2 | 0.00 | 0.00 | 0.00 | 32 | 1016.2 |
| 20260830214534 | 73 | 183 | 0.0 | 5.2 | 0.00 | 0.00 | 0.00 | 33 | 1016.5 |
| 20260830213036 | 73 | 68 | 2.6 | 7.8 | 0.00 | 0.00 | 0.00 | 34 | 1016.6 |
| 20260830211529 | 73 | 19 | 0.9 | 5.2 | 0.00 | 0.00 | 0.00 | 36 | 1016.7 |
| 20260830210028 | 72 | 81 | 4.3 | 9.6 | 0.00 | 0.00 | 0.00 | 35 | 1016.7 |
| 20260830204526 | 72 | 284 | 2.6 | 6.1 | 0.00 | 0.00 | 0.00 | 35 | 1016.8 |
| 20260830203022 | 71 | 44 | 0.9 | 3.5 | 0.00 | 0.00 | 0.00 | 35 | 1017.0 |
| 20260830201521 | 70 | 40 | 0.9 | 6.1 | 0.00 | 0.00 | 0.00 | 36 | 1017.1 |
| 20260830200019 | 71 | 88 | 2.6 | 7.0 | 0.00 | 0.00 | 0.00 | 38 | 1017.1 |
| 20260830194515 | 69 | 329 | 0.0 | 5.2 | 0.00 | 0.00 | 0.00 | 38 | 1017.2 |
| 20260830193014 | 69 | 57 | 1.7 | 5.2 | 0.00 | 0.00 | 0.00 | 38 | 1017.4 |
| 20260830191515 | 69 | 328 | 1.7 | 4.3 | 0.00 | 0.00 | 0.00 | 39 | 1017.5 |
| 20260830190013 | 69 | 335 | 0.9 | 4.3 | 0.00 | 0.00 | 0.00 | 41 | 1017.7 |
| 20260830184509 | 68 | 212 | 1.7 | 5.2 | 0.00 | 0.00 | 0.00 | 40 | 1017.8 |
| 20260830183007 | 68 | 165 | 0.0 | 4.3 | 0.00 | 0.00 | 0.00 | 41 | 1017.9 |
| 20260830181506 | 67 | 305 | 0.9 | 3.5 | 0.00 | 0.00 | 0.00 | 44 | 1018.0 |
| 20260830180002 | 66 | 118 | 0.9 | 3.5 | 0.00 | 0.00 | 0.00 | 43 | 1018.0 |
| 20260830174501 | 66 | 297 | 0.0 | 3.5 | 0.00 | 0.00 | 0.00 | 45 | 1018.0 |
| 20260830173117 | 65 | 314 | 0.9 | 6.1 | 0.00 | 0.00 | 0.00 | 45 | 1018.1 |
| 20260830171605 | 64 | 49 | 1.7 | 4.3 | 0.00 | 0.00 | 0.00 | 45 | 1018.2 |
| 20260830170054 | 64 | 319 | 1.7 | 2.6 | 0.00 | 0.00 | 0.00 | 47 | 1018.3 |
| 20260830164551 | 63 | 64 | 1.7 | 4.3 | 0.00 | 0.00 | 0.00 | 49 | 1018.4 |
| 20260830163150 | 62 | 93 | 0.0 | 2.6 | 0.00 | 0.00 | 0.00 | 50 | 1018.6 |
| 20260830161601 | 61 | 346 | 0.0 | 1.7 | 0.00 | 0.00 | 0.00 | 53 | 1018.6 |
| 20260830160042 | 59 | 77 | 0.0 | 2.6 | 0.00 | 0.00 | 0.00 | 57 | 1018.7 |
| 20260830154540 | 58 | 110 | 0.0 | 2.6 | 0.00 | 0.00 | 0.00 | 58 | 1018.8 |
| 20260830153040 | 56 | 109 | 0.0 | 1.7 | 0.00 | 0.00 | 0.00 | 60 | 1018.9 |
| 20260830151535 | 54 | 117 | 0.9 | 2.6 | 0.00 | 0.00 | 0.00 | 63 | 1019.0 |
| 20260830150034 | 53 | 64 | 0.9 | 1.7 | 0.00 | 0.00 | 0.00 | 64 | 1019.0 |
| 20260830144632 | 52 | 109 | 0.0 | 1.7 | 0.00 | 0.00 | 0.00 | 67 | 1018.9 |
| 20260830143032 | 49 | 109 | 0.0 | 1.7 | 0.00 | 0.00 | 0.00 | 73 | 1018.9 |
| 20260830141531 | 47 | 71 | 0.0 | 0.9 | 0.00 | 0.00 | 0.00 | 77 | 1018.8 |
| 20260830140030 | 44 | 70 | 0.0 | 1.7 | 0.00 | 0.00 | 0.00 | 82 | 1018.7 |
| 20260830134528 | 43 | 71 | 0.0 | 0.9 | 0.00 | 0.00 | 0.00 | 84 | 1018.6 |
| 20260830133031 | 42 | 67 | 0.0 | 2.6 | 0.00 | 0.00 | 0.00 | 83 | 1018.6 |
| 20260830131523 | 43 | 87 | 0.0 | 0.9 | 0.00 | 0.00 | 0.00 | 84 | 1018.4 |
| 20260830130121 | 43 | 88 | 0.0 | 0.0 | 0.00 | 0.00 | 0.00 | 85 | 1018.2 |
| 20260830124531 | 43 | 87 | 0.0 | 0.9 | 0.00 | 0.00 | 0.00 | 83 | 1018.2 |
| 20260830123019 | 43 | 88 | 0.0 | 0.0 | 0.00 | 0.00 | 0.00 | 84 | 1018.1 |
| 20260830121517 | 44 | 88 | 0.0 | 0.0 | 0.00 | 0.00 | 0.00 | 83 | 1018.2 |
| 20260830120014 | 44 | 87 | 0.0 | 0.0 | 0.00 | 0.00 | 0.00 | 81 | 1018.1 |
| 20260830114511 | 45 | 88 | 0.0 | 0.0 | 0.00 | 0.00 | 0.00 | 80 | 1018.0 |
| 20260830113009 | 46 | 88 | 0.0 | 0.9 | 0.00 | 0.00 | 0.00 | 78 | 1017.9 |
| 20260830111607 | 47 | 87 | 0.0 | 0.0 | 0.00 | 0.00 | 0.00 | 78 | 1017.8 |
| 20260830110006 | 46 | 88 | 0.0 | 1.7 | 0.00 | 0.00 | 0.00 | 78 | 1017.7 |
| 20260830104503 | 47 | 41 | 0.0 | 0.0 | 0.00 | 0.00 | 0.00 | 77 | 1017.8 |
| 20260830103002 | 47 | 41 | 0.0 | 0.9 | 0.00 | 0.00 | 0.00 | 77 | 1017.7 |
| 20260830101559 | 48 | 32 | 0.0 | 0.9 | 0.00 | 0.00 | 0.00 | 76 | 1017.7 |
| 20260830100057 | 48 | 32 | 0.0 | 0.9 | 0.00 | 0.00 | 0.00 | 76 | 1017.7 |
| 20260830094555 | 48 | 32 | 0.0 | 0.9 | 0.00 | 0.00 | 0.00 | 75 | 1017.7 |
| 20260830093051 | 49 | 82 | 0.0 | 0.9 | 0.00 | 0.00 | 0.00 | 73 | 1017.5 |
| 20260830091549 | 51 | 82 | 0.0 | 0.9 | 0.00 | 0.00 | 0.00 | 72 | 1017.6 |
| 20260830090045 | 52 | 82 | 0.0 | 0.9 | 0.00 | 0.00 | 0.00 | 71 | 1017.7 |
| 20260830084544 | 53 | 58 | 0.9 | 4.3 | 0.00 | 0.00 | 0.00 | 69 | 1017.6 |
| 20260830083041 | 54 | 110 | 0.0 | 2.6 | 0.00 | 0.00 | 0.00 | 68 | 1017.3 |
| 20260830081543 | 54 | 110 | 0.0 | 0.9 | 0.00 | 0.00 | 0.00 | 70 | 1017.4 |
| 20260830080035 | 54 | 110 | 0.0 | 0.9 | 0.00 | 0.00 | 0.00 | 66 | 1017.3 |
| 20260830074532 | 56 | 110 | 0.0 | 0.9 | 0.00 | 0.00 | 0.00 | 63 | 1017.3 |
| 20260830073031 | 56 | 110 | 0.0 | 3.5 | 0.00 | 0.00 | 0.00 | 62 | 1017.3 |
| 20260830071529 | 56 | 104 | 0.0 | 1.7 | 0.00 | 0.00 | 0.00 | 63 | 1017.3 |
| 20260830070026 | 56 | 104 | 0.0 | 1.7 | 0.00 | 0.00 | 0.00 | 62 | 1017.4 |
| 20260830064526 | 57 | 104 | 0.0 | 2.6 | 0.00 | 0.00 | 0.00 | 60 | 1017.4 |
| 20260830063034 | 57 | 117 | 0.0 | 2.6 | 0.00 | 0.00 | 0.00 | 59 | 1017.3 |
| 20260830061525 | 58 | 138 | 0.0 | 2.6 | 0.00 | 0.00 | 0.00 | 58 | 1017.3 |
| 20260830060024 | 58 | 166 | 0.9 | 4.3 | 0.00 | 0.00 | 0.00 | 57 | 1017.4 |
| 20260830054525 | 58 | 149 | 0.9 | 3.5 | 0.00 | 0.00 | 0.00 | 57 | 1017.5 |
| 20260830053023 | 58 | 158 | 0.9 | 5.2 | 0.00 | 0.00 | 0.00 | 57 | 1017.6 |
| 20260830051522 | 59 | 114 | 0.0 | 1.7 | 0.00 | 0.00 | 0.00 | 56 | 1017.8 |
| 20260830050022 | 60 | 121 | 0.0 | 4.3 | 0.00 | 0.00 | 0.00 | 54 | 1017.8 |
| 20260830044520 | 59 | 126 | 0.9 | 3.5 | 0.00 | 0.00 | 0.00 | 55 | 1017.7 |
| 20260830043020 | 60 | 115 | 0.0 | 1.7 | 0.00 | 0.00 | 0.00 | 54 | 1017.7 |
| 20260830041522 | 61 | 121 | 0.0 | 1.7 | 0.00 | 0.00 | 0.00 | 52 | 1017.6 |
| 20260830040016 | 61 | 124 | 0.9 | 4.3 | 0.00 | 0.00 | 0.00 | 51 | 1017.3 |
| 20260830034514 | 62 | 118 | 0.0 | 3.5 | 0.00 | 0.00 | 0.00 | 49 | 1017.0 |
| 20260830033013 | 62 | 180 | 0.0 | 3.5 | 0.00 | 0.00 | 0.00 | 49 | 1016.7 |
| 20260830031511 | 63 | 153 | 0.9 | 3.5 | 0.00 | 0.00 | 0.00 | 48 | 1016.6 |
| 20260830030009 | 64 | 113 | 0.9 | 7.8 | 0.00 | 0.00 | 0.00 | 46 | 1016.3 |
| 20260830024506 | 65 | 115 | 2.6 | 7.8 | 0.00 | 0.00 | 0.00 | 45 | 1016.1 |
| 20260830023006 | 66 | 114 | 2.6 | 9.6 | 0.00 | 0.00 | 0.00 | 43 | 1016.0 |
| 20260830021514 | 67 | 101 | 1.7 | 8.7 | 0.00 | 0.00 | 0.00 | 42 | 1015.9 |
| 20260830020004 | 67 | 106 | 1.7 | 10.4 | 0.00 | 0.00 | 0.00 | 41 | 1015.7 |
| 20260830014502 | 68 | 116 | 3.5 | 7.8 | 0.00 | 0.00 | 0.00 | 40 | 1015.7 |
| 20260830013001 | 68 | 120 | 6.1 | 11.3 | 0.00 | 0.00 | 0.00 | 40 | 1015.5 |
| 20260830011607 | 68 | 117 | 4.3 | 13.0 | 0.00 | 0.00 | 0.00 | 39 | 1015.5 |